This demonstration page uses our WeatherBlox Daily Observations layout. Learn more.

Left ArrowRight Arrow

38.20091, -84.87328

Hourly Observations for July 29, 2015

Temp ( °F °C ) Dew Point ( °F °C ) Humidity (%) Winds ( mph kmh ) Pressure ( in mb ) Visibility ( mi km ) Precip ( " mm )
12:53 am 00:53 Clear 74 23.3 72 22.2 94 94 Calm 29.97 1015 9 14 0.00 0.00
1:53 am 01:53 Clear 74 23.3 72 22.2 94 94 Calm 29.95 1014 8 13 0.00 0.00
2:53 am 02:53 Clear 74 23.3 71 21.7 91 91 Calm 29.94 1014 10 16 0.00 0.00
3:53 am 03:53 Clear 73 22.8 71 21.7 94 94 Calm 29.93 1014 7 11 0.00 0.00
4:53 am 04:53 Clear 73 22.8 70 21.1 90 90 Calm 29.94 1014 7 11 0.00 0.00
5:53 am 05:53 Clear 71 21.7 69 20.6 94 94 Calm 29.96 1015 7 11 0.00 0.00
6:53 am 06:53 Sunny with Mist and Fog 72 22.2 70 21.1 94 94 Calm 29.98 1015 5 8 0.00 0.00
7:53 am 07:53 Sunny with Mist and Fog 73 22.8 71 21.7 94 94 WSW 3 6 29.97 1015 5 8 0.00 0.00
8:53 am 08:53 Sunny with Mist and Fog 75 23.9 72 22.2 90 90 SW 3 6 29.98 1015 4 6 0.00 0.00
9:53 am 09:53 Hazy 80 26.7 75 23.9 85 85 Calm 29.99 1016 6 10 0.00 0.00
10:53 am 10:53 Sunny 83 28.3 76 24.4 79 79 SW 6 9 29.98 1015 8 13 0.00 0.00
11:53 am 11:53 Mostly Sunny 86 30 75 23.9 70 70 VRB 3 6 29.97 1015 9 14 0.00 0.00
12:42 pm 12:42 Mostly Cloudy 87 30.6 75 23.9 67 67 WSW 6 9 29.94 1014 9 14 0.00 0.00
12:53 pm 12:53 Mostly Cloudy 88 31.1 75 23.9 66 66 SSW 5 7 29.96 1015 10 16 0.00 0.00
1:53 pm 13:53 Sunny 88 31.1 75 23.9 66 66 SW 7 11 29.96 1015 10 16 0.00 0.00
2:28 pm 14:28 Mostly Cloudy with Thunderstorms 84 28.9 77 25 80 80 WSW 9 15 29.97 1015 5 8 0.00 0.03
2:34 pm 14:34 Mostly Cloudy with Strong Thunderstorms 82 27.8 76 24.4 82 82 SSW 14 22 29.97 1015 3 4 0.04 1.02
2:44 pm 14:44 Cloudy with Thunderstorms 78 25.6 73 22.8 85 85 WSW 8 13 29.97 1015 4 6 0.05 1.27
2:53 pm 14:53 Cloudy with Thunderstorms 78 25.6 73 22.8 85 85 SW 6 9 29.96 1015 9 14 0.05 1.27
2:59 pm 14:59 Cloudy with Nearby Thunderstorms 79 26.1 74 23.3 85 85 W 5 7 29.97 1015 3 4 0.03 0.76
3:08 pm 15:08 Cloudy with Thunderstorms 80 26.7 75 23.9 85 85 VRB 5 7 29.94 1014 3 5 0.04 1.02
3:53 pm 15:53 Cloudy with Strong Thunderstorms 78 25.6 73 22.8 85 85 NE 10 17 29.95 1014 3 5 0.14 3.56
4:00 pm 16:00 Cloudy with Strong Thunderstorms 78 25.6 71 21.7 79 79 NNE 12 19 29.94 1014 2 2 0.08 2.03
4:06 pm 16:06 Cloudy with Nearby Thunderstorms 74 23.3 70 21.1 88 88 NNE 9 15 29.94 1014 1 1 0.21 5.33
4:15 pm 16:15 Cloudy with Heavy Rain 75 23.9 72 22.2 90 90 VRB 3 6 29.94 1014 1 1 0.40 10.16
4:20 pm 16:20 Cloudy with Thunderstorms 76 24.4 73 22.8 91 91 NE 6 9 29.94 1014 1 2 0.40 10.16
4:23 pm 16:23 Mostly Cloudy with Thunderstorms 77 25 74 23.3 90 90 E 5 7 29.94 1014 3 5 0.40 10.16
4:30 pm 16:30 Mostly Cloudy with Thunderstorms 79 26.1 75 23.9 88 88 SSE 6 9 29.91 1013 6 10 0.40 10.16
4:53 pm 16:53 Mostly Sunny 82 27.8 76 24.4 82 82 SW 5 7 29.92 1013 8 13 0.40 10.16
5:53 pm 17:53 Sunny 86 30 77 25 75 75 S 9 15 29.92 1013 10 16 0.00 0.00
6:53 pm 18:53 Sunny with Nearby Thunderstorms 83 28.3 76 24.4 79 79 SE 6 9 29.93 1014 10 16 0.00 0.00
7:12 pm 19:12 Mostly Cloudy with Thunderstorms 75 23.9 69 20.6 82 82 WNW 12 19 29.97 1015 4 6 0.04 1.02
7:22 pm 19:22 Cloudy with Thunderstorms 72 22.2 68 20 87 87 WNW 13 20 30.00 1016 4 6 0.08 2.03
7:43 pm 19:43 Mostly Cloudy with Nearby Thunderstorms 73 22.8 69 20.6 87 87 Calm 29.97 1015 5 8 0.12 3.05
7:53 pm 19:53 Mostly Cloudy with Nearby Thunderstorms 73 22.8 69 20.6 87 87 SSW 3 6 29.96 1015 10 16 0.12 3.05
8:06 pm 20:06 Partly Cloudy with Thunderstorms 73 22.8 70 21.1 90 90 SSW 5 7 29.94 1014 10 16 0.00 0.03
8:49 pm 20:49 Partly Cloudy with Nearby Thunderstorms 73 23 70 21 89 89 Calm 29.94 1014 8 13 0.01 0.25
8:53 pm 20:53 Mostly Clear with Nearby Thunderstorms 73 22.8 70 21.1 90 90 WNW 3 6 29.95 1014 8 13 0.02 0.51
9:06 pm 21:06 Mostly Cloudy with Light Rain 73 22.8 71 21.7 94 94 Calm 29.97 1015 10 16 0.00 0.03
9:53 pm 21:53 Mostly Clear 72 22.2 70 21.1 94 94 SW 5 7 29.99 1016 10 16 0.00 0.03
10:53 pm 22:53 Partly Cloudy 72 22.2 70 21.1 94 94 Calm 29.99 1016 10 16 0.00 0.00
11:53 pm 23:53 Clear 72 22.2 70 21.1 94 94 Calm 29.99 1016 10 16 0.00 0.00

Powered by AerisWeather